SCOUT X-4 DEB, 977

Orbit data source: Space-Track

SCOUT X-4 DEB, 977 is space debris in LEO originally from a launch on Sat, 10 Oct 1964 UTC launched from the Air Force Western Test Range (AFWTR). Debris objects in space refer to the collection of defunct objects orbiting the Earth. Examples of debris include non-operational satellites, rocket bodies, and fragments generated from explosions, collisions, or faulty payload assembly.

Loading next visibility...
Identifier
977, 1964-064D
Orbit
LEO
Country
Flag of USUS
Related business
Manufacturer
APL
Mission
Spacecraft
Bus & Motor
Unknown
Mass
Unknown
Launch date (UTC)
1964-10-10 (62 years ago)
Launch vehicle
Unknown
Launch site
Air Force Western Test Range (AFWTR)
Object type
Payload
Rocket body
Debris
Shape & HBR
Unknown shape, 0.1 m
Radar Cross Section
Small (<0.1 m²)

Expand to show TLE details & history
Last TLE update: 5 days ago

TLE from 5 days ago
0 SCOUT X-4 DEB
1 00977U 64064D   26125.22916204  .00000353  00000-0  31949-3 0  9995
2 00977  80.0466 196.4123 0125568 268.8420  89.8341 13.79097305 83516
Epoch: 2026-05-05T05:29Z
TLE epoch observation values (Epoch: 2026-05-05T05:29:59.600Z)
Latitude
-0.00008°
Longitude
-109.19305°
Altitude
970.798 km
Speed
7.366 km/s
True Right ascension
13h 05m 38s
True Declination
0° 00' 00"
Sunlit
Object was in full shadow at epoch
Visualization orbit readout
Latitude
Unknown
Longitude
Unknown
Altitude
Unknown
Speed
Unknown
Apparent Right ascension
Unknown
Apparent Declination
Unknown
Sunlit
N/A
Visualization observer readout
Local Sidereal Time
07:11:47
Azimuth
Unknown
Elevation
Unknown
Doppler factor
Unknown
Orbital elements
Apogee altitude
1,056.564 km
Perigee altitude
872.167 km
Semi-major axis
7,342.503 km
Eccentricity
0.01256
Inclination
80.0466°
RAAN
196.4123°
Arg. of periapsis
268.842°
True anomaly
91.27291°
Mean anomaly
89.8341°
Eccentric anomaly
90.55352°
Mean motion
3.44967 °/min
Orbital period
104.36 mins
BSTAR
0.00031949
Loading maneuver chart data...
Computing Atmospheric mass density...
Loading historical data...
Loading historical data...
Loading historical data...
Loading historical data...
Loading historical data...
Loading historical data...
Loading historical data...
Other satellites on launch #64 in the year 1964 (1964-10-10 UTC)

Documentation

Showing up to 5 results
|